Wind_Speed
14 18 21 21 23 25 25 25 24 23 24 25 27 27 24 24 26 29 30 29 27 27 26 24 22 20 17 16 15 15 16 15 15 17 18 20 21 22 23 24 26 27 28 30 31 32 34 35 36 38 40 41 43 44 45 47 48 49 49 49 49 50 51 51 51 51 50 48 46 44 41 39 35 30 24 17 11 9 12 17 21 25 27 30 34 38
19 24 27 27 26 27 28 28 27 27 29 28 28 28 25 25 26 28 28 25 25 26 26 25 23 21 20 19 17 17 17 16 17 18 19 20 20 20 21 23 25 26 27 28 30 32 33 34 35 37 40 41 42 44 45 46 47 48 49 49 49 50 51 52 52 53 53 52 51 50 49 47 44 41 37 33 27 20 13 9 10 15 19 22 26 29
26 28 30 30 27 27 28 28 27 27 28 27 27 25 24 24 25 25 23 22 23 23 23 23 22 21 20 18 15 15 17 18 19 20 20 19 19 20 22 23 24 25 26 28 29 30 31 32 34 36 38 39 41 42 43 45 46 47 48 49 50 50 51 52 52 53 54 54 54 54 54 53 51 48 45 42 39 35 30 24 17 11 8 11 16 20
30 29 32 31 26 25 25 27 27 26 25 25 25 24 23 24 24 23 21 21 21 20 20 20 19 19 18 16 14 15 18 20 21 20 19 18 19 22 22 21 22 24 25 27 28 29 30 31 32 34 36 38 39 40 41 43 44 45 46 47 48 49 50 51 52 53 53 54 54 55 55 55 54 53 51 49 47 44 41 37 33 28 22 16 10 9
28 29 32 32 26 21 20 23 26 26 25 24 24 23 22 22 21 21 20 19 19 18 17 18 18 17 17 17 16 18 20 21 21 19 18 19 21 22 20 19 21 23 25 26 26 28 29 30 31 33 34 36 37 38 39 40 42 43 44 45 46 47 48 49 50 51 52 53 53 54 55 55 54 54 54 54 53 51 48 45 42 39 35 31 26 20
26 26 28 29 25 20 19 22 23 24 25 24 22 21 20 19 19 19 18 16 17 17 17 18 17 17 18 18 18 18 18 18 17 17 17 20 21 19 18 19 21 23 24 25 25 26 27 29 30 31 33 34 35 36 37 38 39 41 42 43 44 45 46 47 48 49 50 51 52 53 54 54 54 54 54 55 54 54 52 51 48 46 42 39 36 32
25 24 24 26 25 22 22 22 21 22 23 22 20 19 18 18 18 18 16 15 16 18 18 18 16 17 18 18 17 17 16 16 16 16 18 20 19 17 16 18 20 21 23 23 23 24 26 27 28 30 31 32 33 34 35 37 38 39 40 41 43 44 45 46 46 47 48 49 50 51 52 52 52 53 53 54 53 53 53 53 52 50 48 45 42 39
24 24 24 24 24 23 22 21 21 21 21 21 20 18 18 17 18 17 15 14 16 18 17 16 16 17 18 16 16 16 16 17 17 17 19 19 18 15 16 17 18 20 21 21 22 23 25 26 27 29 30 31 32 33 34 36 37 38 39 40 41 42 44 44 45 46 46 47 47 48 49 49 50 51 51 52 52 52 52 52 52 51 51 49 48 45
24 24 24 24 23 23 22 21 21 20 20 20 19 17 17 16 16 16 15 16 17 18 17 17 17 18 16 16 16 17 18 19 18 18 19 17 16 16 17 17 18 19 20 20 21 22 23 24 26 27 28 30 31 32 33 34 36 37 37 39 40 41 42 43 44 45 45 46 46 46 46 47 47 48 49 50 50 50 50 50 50 50 49 49 49 48
23 24 24 25 23 22 21 21 21 20 20 19 18 18 17 16 16 17 16 16 16 16 17 18 17 16 15 16 18 19 20 19 18 17 17 16 16 17 17 17 18 19 19 19 21 21 22 23 24 26 27 28 29 30 31 33 34 35 36 37 38 39 40 41 42 44 44 45 45 45 45 45 45 46 47 47 47 48 48 48 48 48 48 48 48 48
22 23 24 24 22 22 22 20 20 21 20 19 18 18 18 18 18 16 15 14 14 15 16 16 15 14 15 17 17 18 18 16 15 16 16 17 17 17 17 18 19 18 18 19 19 20 20 21 23 24 25 26 27 28 29 31 32 33 34 35 35 37 38 39 40 41 42 43 44 44 44 44 44 44 44 44 45 45 46 46 46 46 47 47 46 46
21 22 22 21 21 21 21 20 19 20 19 18 17 18 19 17 16 14 13 13 13 14 14 14 12 12 14 15 15 15 14 12 14 15 16 17 18 18 18 18 17 17 17 17 18 18 19 19 21 22 23 24 25 26 28 29 30 31 32 33 34 35 36 37 38 39 40 41 42 43 43 43 43 43 43 42 42 43 44 44 44 45 45 45 45 45
20 21 20 20 20 19 19 18 18 18 17 16 17 18 17 15 14 14 13 12 12 12 12 12 11 11 12 13 13 13 12 12 14 14 14 15 15 16 16 15 15 14 14 15 16 17 18 19 19 20 21 22 23 24 26 27 28 30 31 32 33 34 35 36 37 38 38 39 40 41 41 41 42 41 41 40 40 41 41 42 42 43 43 43 44 44
20 20 20 19 19 18 18 17 16 16 16 15 16 15 14 14 14 13 12 11 11 11 11 11 11 11 12 12 11 11 12 14 14 14 14 14 15 15 14 13 13 13 14 15 15 16 17 18 19 19 20 21 23 24 25 26 27 27 29 30 31 32 33 34 35 36 37 38 39 39 40 40 40 40 39 39 39 39 39 39 40 40 41 41 41 42
19 19 19 18 18 18 17 16 16 15 15 14 14 13 13 14 13 13 12 11 11 11 11 11 12 12 13 12 10 10 11 12 12 12 13 14 14 14 14 14 15 16 17 17 17 18 18 18 18 19 20 21 22 23 24 25 26 27 28 29 30 30 31 32 33 34 35 36 36 37 38 38 38 38 38 37 37 37 37 37 38 38 38 39 39 39
17 16 16 16 16 16 16 15 15 14 13 12 12 12 13 13 13 13 12 11 10 11 10 10 10 12 12 12 11 11 10 8 8 9 11 12 13 14 14 16 17 17 18 19 20 20 19 19 19 19 20 21 21 22 23 25 26 27 28 28 29 30 31 31 32 33 33 34 35 35 36 36 37 37 36 36 35 36 36 36 37 37 37 37 37 38
14 14 14 14 13 13 13 13 12 12 11 11 11 11 12 12 12 11 11 10 10 10 11 10 11 12 12 12 13 14 12 10 8 10 12 13 15 15 16 16 16 17 18 18 18 18 18 19 19 20 20 20 21 22 23 24 25 26 27 28 29 30 30 31 31 32 32 33 33 33 34 35 35 35 35 34 34 34 35 36 36 36 36 36 37 37
12 12 12 11 10 10 10 10 10 10 9 9 9 10 10 10 11 10 10 10 9 10 11 10 11 12 12 12 13 14 15 15 15 15 15 15 14 15 16 16 16 15 16 16 16 16 17 18 19 20 21 21 22 22 23 24 24 25 26 26 27 28 29 29 30 30 31 31 31 31 32 33 33 34 34 34 33 33 34 34 35 36 36 37 37 37
9 9 8 8 7 7 7 8 8 8 7 7 8 8 9 9 9 9 8 8 8 9 10 8 9 9 10 11 12 13 15 17 18 18 18 17 16 15 16 17 17 16 15 16 17 17 18 19 19 20 22 23 23 23 24 24 24 25 25 26 26 27 28 28 28 29 29 29 30 30 30 31 32 32 33 33 33 33 33 33 34 35 36 37 38 38
7 6 6 5 5 5 6 6 6 6 5 5 6 6 7 8 8 8 8 8 8 8 8 7 7 8 8 9 11 12 12 14 16 18 18 18 19 18 18 18 20 20 18 18 18 19 20 20 21 21 22 23 24 24 24 25 25 25 25 26 26 27 28 28 28 29 29 30 30 30 30 30 31 32 33 33 33 33 32 32 33 35 36 36 37 38
5 5 5 5 4 5 5 5 6 5 4 3 4 5 6 8 9 8 9 9 9 9 9 8 8 9 9 10 11 12 12 11 13 16 17 18 19 20 21 21 21 23 23 22 21 21 21 22 22 22 22 23 24 25 25 26 26 26 26 26 27 27 28 28 29 29 30 30 30 30 30 31 31 32 32 33 33 33 32 32 33 34 35 36 37 37
5 6 6 6 5 5 5 5 5 4 3 3 4 5 7 8 9 8 9 10 11 12 12 12 11 12 12 11 12 14 16 16 15 17 18 19 20 21 22 22 23 24 25 25 25 24 24 24 24 24 24 24 25 25 26 27 27 27 27 27 27 28 28 28 29 29 30 30 30 30 30 31 31 32 32 32 32 32 32 33 34 35 35 36 36 37
5 5 6 5 4 4 4 5 5 5 4 4 6 7 8 9 10 10 10 11 12 14 15 15 15 15 16 15 14 14 16 18 21 22 23 22 22 22 23 23 24 24 25 26 26 26 26 26 26 25 25 25 25 26 27 27 27 28 28 27 27 27 28 28 29 29 30 30 30 30 30 31 32 32 32 33 33 33 33 34 36 36 36 37 37 37
4 4 5 5 4 4 5 5 5 6 6 6 8 8 9 10 11 11 11 10 11 12 14 14 14 16 18 18 18 15 12 14 19 22 23 24 24 24 24 24 24 24 24 26 26 27 27 27 27 28 28 27 27 27 27 27 28 28 28 29 28 28 28 28 29 29 30 30 30 31 31 32 33 33 33 33 33 33 34 35 37 38 39 38 38 38
3 4 5 6 5 5 6 6 7 7 7 7 9 10 10 11 12 13 12 11 10 12 14 14 13 15 18 19 21 21 18 17 20 21 22 24 24 24 26 26 26 25 25 26 26 27 28 28 29 29 30 30 30 29 29 29 29 29 29 29 29 30 29 29 29 29 30 30 31 31 32 33 33 33 33 34 34 34 35 36 38 40 41 41 40 40
5 5 5 7 8 7 7 7 8 9 10 9 10 11 11 11 12 14 15 14 13 12 15 17 16 16 20 22 23 25 26 26 27 27 28 29 29 28 28 29 29 28 27 27 27 28 28 28 29 29 30 30 31 31 30 30 30 30 30 30 30 30 31 31 31 31 31 32 32 33 34 34 35 35 35 36 36 36 37 38 40 42 43 43 43 42
7 7 6 7 10 10 9 9 9 10 12 13 13 14 14 13 12 13 16 18 18 17 17 19 20 20 22 24 24 25 26 28 29 30 31 32 33 33 31 30 30 30 30 30 30 30 29 29 29 30 30 31 32 32 32 32 32 31 31 31 31 31 32 33 34 34 34 34 34 35 36 37 38 38 39 39 39 39 40 41 42 44 44 44 44 43
11 11 9 10 11 12 12 13 13 13 14 15 16 17 19 19 18 17 18 20 22 22 22 23 23 23 24 25 26 26 26 26 28 29 29 30 32 34 33 32 31 31 31 32 32 32 31 31 31 30 31 32 32 32 33 34 34 35 34 33 33 33 33 34 35 36 37 37 38 38 39 39 40 41 42 42 42 42 43 44 45 45 45 45 45 45
16 15 14 14 14 15 15 16 18 18 18 18 18 19 21 23 24 23 23 23 24 26 27 27 25 24 26 28 29 29 29 29 30 30 29 29 31 33 34 34 34 33 33 34 34 34 34 33 33 32 31 32 33 33 33 33 34 35 37 37 37 36 36 36 37 37 38 39 40 41 41 41 42 42 42 43 44 44 45 46 46 46 46 46 46 47
19 18 19 19 18 17 17 18 20 22 23 22 20 21 23 23 24 25 25 26 26 28 29 30 29 26 27 30 31 32 32 33 33 33 32 31 31 31 33 35 36 36 36 36 36 36 37 36 36 35 34 34 34 35 35 35 35 35 37 38 39 40 40 39 39 39 40 40 41 42 43 43 43 43 43 43 44 44 45 46 46 46 47 47 48 48
21 20 21 22 21 19 19 19 20 22 25 24 23 23 24 25 26 26 26 27 28 30 32 33 33 31 30 31 33 34 35 36 36 36 36 35 34 33 34 35 36 37 38 38 38 39 39 39 39 39 38 37 37 37 37 37 37 37 37 38 39 41 42 42 42 42 42 43 43 44 44 45 46 46 46 46 46 46 46 47 47 48 48 48 48 49
23 23 23 25 25 22 21 21 22 24 26 26 27 27 26 26 28 28 28 29 30 32 34 35 35 34 33 33 34 35 36 37 38 38 38 39 39 38 37 37 37 38 39 39 40 40 40 41 41 41 42 42 41 41 41 41 41 41 41 42 42 42 43 44 44 45 45 45 46 46 47 48 48 49 49 50 50 50 50 50 50 50 50 50 50 50
26 26 26 27 28 26 24 24 25 26 27 28 31 31 29 29 30 30 29 30 31 33 35 36 36 36 35 36 36 36 37 38 40 40 39 40 41 41 40 39 39 39 39 39 39 39 39 40 40 41 42 43 43 43 44 44 44 44 44 44 44 45 45 46 47 47 48 48 48 49 49 50 51 51 52 52 53 53 54 53 52 52 52 52 51 51
28 28 28 29 29 28 27 26 27 28 28 30 32 33 33 33 33 32 31 32 33 36 38 39 38 35 35 35 36 36 37 38 39 39 37 37 39 40 39 38 37 37 36 35 35 34 34 35 35 36 37 38 39 39 40 40 41 41 42 42 42 43 44 45 45 46 46 47 47 48 48 49 49 50 50 51 51 52 52 52 52 51 52 52 52 51
30 29 29 29 30 30 29 29 30 31 30 31 33 34 36 37 36 34 33 34 35 37 38 39 37 34 32 32 32 33 34 34 34 34 32 32 33 33 33 33 32 32 32 32 31 31 32 32 33 34 34 35 36 37 38 38 38 39 39 40 40 40 40 41 41 41 41 41 42 43 43 44 44 45 45 45 46 47 48 48 48 49 49 50 50 50
31 31 31 31 31 32 32 32 33 34 34 33 33 35 37 38 36 32 29 29 31 31 32 34 33 31 30 30 29 30 30 31 31 30 29 29 29 30 30 30 30 30 31 31 31 32 33 33 34 35 35 35 36 36 37 37 38 38 38 38 38 38 38 39 40 40 40 40 40 41 41 42 42 42 42 43 43 44 45 46 46 47 47 48 48 49
34 35 35 35 34 34 33 33 33 34 33 30 27 29 32 32 30 26 24 24 26 26 27 29 31 30 30 29 28 28 28 29 30 30 30 29 28 28 29 30 31 31 32 33 33 33 34 35 35 35 35 35 35 36 36 37 37 38 38 38 38 38 38 38 39 40 40 40 40 40 41 41 41 42 43 44 44 44 44 45 46 46 47 47 47 47
34 35 35 33 31 29 28 27 27 27 27 24 21 22 26 27 26 25 24 25 26 27 27 28 30 30 30 28 27 27 27 28 29 30 31 31 31 30 31 31 32 33 34 34 34 35 35 35 35 35 36 35 35 36 37 38 39 40 40 40 40 39 39 39 39 40 41 42 41 41 41 41 41 42 44 45 46 45 45 45 46 46 47 47 47 47
26 28 29 28 26 23 22 22 23 23 25 24 21 21 24 25 25 25 24 25 27 27 27 28 30 31 31 29 27 28 29 29 29 30 32 33 33 33 34 34 34 35 36 37 38 39 39 39 39 39 39 39 39 39 40 41 42 43 43 44 43 43 42 42 42 42 43 44 44 45 45 44 44 44 45 47 48 47 47 47 46 47 47 47 47 47
23 23 25 26 26 24 22 22 23 24 25 26 24 23 24 25 26 25 24 25 26 26 27 29 31 32 32 32 31 31 31 31 31 32 34 34 34 35 36 36 36 36 37 38 39 41 42 43 43 43 42 42 42 42 42 43 44 45 45 46 46 46 45 45 45 45 45 46 47 48 48 48 48 48 48 48 49 49 49 49 48 48 48 47 47 47
26 25 25 27 29 28 26 25 25 26 27 28 27 26 26 27 27 27 27 27 27 28 29 30 32 33 34 34 35 34 34 35 35 35 36 36 36 36 37 38 38 38 39 39 40 41 42 42 43 44 44 44 45 45 45 44 45 46 47 47 48 48 47 47 47 48 48 48 48 49 50 51 51 51 51 51 51 52 52 51 51 50 50 49 49 48
29 28 29 30 32 31 29 28 28 28 30 30 29 27 28 28 28 29 30 30 30 30 31 32 33 33 34 35 36 37 37 38 39 39 39 38 38 38 39 39 40 41 42 43 44 43 43 42 43 43 44 45 45 46 46 46 47 48 48 48 49 49 48 49 49 49 50 50 51 51 52 53 53 54 54 54 54 54 55 55 55 54 54 53 52 52
33 33 33 34 35 34 33 32 31 32 33 33 32 31 30 30 31 31 33 33 32 32 33 33 33 34 35 35 37 38 39 40 41 42 42 41 40 41 41 41 41 42 44 45 45 44 44 43 43 44 44 45 45 46 46 47 48 48 49 50 50 50 50 50 51 52 52 53 54 54 55 55 55 56 57 57 57 56 57 57 57 57 57 57 56 55
36 36 37 37 37 37 36 35 35 35 36 35 34 34 33 33 33 34 35 35 35 35 35 34 34 34 35 36 38 39 40 41 42 43 44 44 44 44 44 43 44 45 47 47 46 45 45 44 44 45 45 45 46 47 47 47 48 49 50 51 52 51 51 50 51 52 53 55 56 56 57 57 58 58 58 58 58 58 58 58 58 59 59 60 60 59
39 39 39 39 40 40 39 39 39 39 39 38 37 37 36 35 35 36 37 37 37 36 36 35 35 35 35 37 39 40 41 41 41 42 44 44 45 45 46 47 48 50 50 50 49 49 48 48 47 47 47 47 48 48 49 49 50 50 51 53 54 54 53 51 50 50 52 53 55 56 58 58 59 59 59 59 59 59 59 59 59 59 60 61 62 62
43 43 42 43 43 43 43 43 42 42 42 41 40 40 39 38 38 38 39 39 39 39 38 37 36 36 37 38 40 41 42 42 43 43 44 45 46 48 49 50 51 53 52 51 51 51 50 50 50 49 49 50 51 51 52 52 52 53 54 55 57 57 57 55 54 53 53 54 55 56 58 59 60 60 60 60 60 59 59 59 59 60 61 62 63 63
46 46 47 47 47 47 47 46 45 45 44 43 42 42 42 41 41 41 41 42 42 42 41 40 40 40 40 41 42 42 43 44 44 45 45 47 49 50 51 52 54 54 53 52 52 51 51 51 52 52 51 51 52 53 54 55 56 56 57 58 59 61 61 60 59 58 58 58 58 58 59 60 61 62 62 62 61 61 60 60 60 61 63 63 63 64
49 50 51 50 50 51 50 49 49 49 48 46 45 44 44 44 44 44 44 44 44 44 44 44 45 45 45 45 45 45 45 46 46 47 49 50 51 52 53 54 54 54 54 54 53 53 53 54 55 55 56 55 55 55 56 57 58 59 60 61 62 63 64 65 63 62 62 62 62 62 62 63 63 63 63 64 64 64 64 64 64 64 64 65 65 65
53 54 54 53 54 54 53 52 52 52 51 51 49 48 47 47 47 47 47 47 46 46 46 47 48 48 49 49 48 49 50 51 51 52 53 53 54 54 54 54 54 54 54 55 55 55 56 56 57 58 59 60 60 60 60 61 62 63 63 64 66 66 67 67 66 65 65 65 65 65 65 65 65 65 65 65 67 67 67 67 66 66 66 66 66 65
57 57 57 56 57 57 56 55 55 54 54 54 54 53 52 52 52 51 51 50 50 50 50 50 50 51 51 51 50 51 53 55 55 56 57 57 56 56 55 55 55 56 57 58 58 58 58 59 59 60 62 63 64 65 65 66 66 66 67 68 69 70 70 70 69 68 68 67 67 67 67 67 67 66 66 66 67 68 68 68 68 67 66 66 65 64
61 61 61 60 60 60 60 59 58 58 58 58 58 58 57 56 56 56 56 56 55 55 54 54 55 54 53 53 53 54 56 57 59 60 60 60 59 58 57 56 56 58 59 60 61 61 61 61 62 63 64 65 66 67 68 70 70 71 71 71 72 73 74 74 74 72 70 69 69 68 68 68 67 67 67 67 68 68 68 68 68 67 66 65 64 63
Wind_Direction
82 88 92 91 93 96 99 101 100 99 98 97 96 94 93 92 89 86 83 81 83 86 88 86 84 85 88 92 92 88 82 74 69 64 60 59 58 57 55 55 57 58 58 59 59 58 58 57 57 57 57 56 56 56 56 55 55 54 53 52 51 50 50 49 49 48 47 47 47 46 46 46 45 44 41 33 9 326 293 278 272 269 267 263 259 255
98 100 101 98 95 96 96 97 98 99 97 95 95 95 94 91 86 83 82 84 86 87 88 89 89 93 93 89 87 86 84 83 79 72 67 65 63 62 60 59 60 60 60 60 59 59 59 58 57 56 56 55 55 54 54 54 54 53 52 52 51 50 49 49 48 48 48 48 48 49 49 48 48 48 48 47 44 39 26 350 301 281 274 271 267 264
104 103 101 97 95 96 97 96 94 93 93 93 93 94 93 87 82 81 82 85 86 86 87 88 88 88 83 78 80 87 88 85 79 72 68 68 67 64 60 59 60 60 60 59 58 59 58 57 56 56 55 54 54 53 53 53 52 52 51 51 50 50 49 48 48 47 47 47 47 48 49 50 50 50 49 49 49 48 46 43 36 16 332 295 280 275
103 103 101 97 95 98 101 101 97 92 90 90 90 90 89 86 84 83 82 82 82 81 81 81 79 78 78 82 92 94 86 77 71 67 66 67 65 62 58 59 61 60 58 57 57 57 56 55 54 54 54 54 53 52 52 52 51 50 50 49 49 48 47 47 47 47 46 46 47 47 48 49 49 50 50 50 50 49 48 47 46 44 40 32 10 330
104 107 106 103 102 102 103 102 100 97 93 89 86 84 82 82 83 83 80 79 77 75 76 77 76 73 74 75 75 72 65 60 59 59 61 62 60 57 55 58 60 58 56 55 55 55 54 53 52 52 53 53 52 51 51 50 50 49 48 48 48 47 46 45 45 45 45 45 45 46 46 47 47 48 48 49 49 49 48 48 47 46 46 44 43 39
107 108 107 106 105 104 101 96 94 95 91 86 81 77 75 77 79 78 75 74 73 71 69 68 65 64 64 62 58 56 53 51 52 55 58 58 57 54 52 55 57 56 54 53 52 52 53 51 49 48 49 50 50 49 49 48 48 47 46 45 45 45 45 44 44 43 43 43 43 43 44 44 45 45 46 47 47 47 47 47 47 47 46 46 45 45
105 104 101 101 102 99 94 90 87 85 84 81 75 73 73 73 73 71 66 65 66 63 59 54 52 54 55 54 54 56 58 56 53 54 56 56 55 53 51 54 56 56 54 52 50 49 49 49 46 44 45 46 46 46 45 45 45 45 43 43 42 42 42 42 42 41 41 41 41 41 42 42 43 43 44 45 45 45 45 46 46 46 46 45 45 45
99 97 95 95 95 93 89 86 82 79 77 76 72 69 69 68 68 67 64 62 61 58 53 51 51 51 50 50 52 55 58 57 52 50 51 52 53 52 53 56 56 55 53 50 48 46 46 44 42 41 41 41 42 41 40 41 41 41 40 40 39 39 39 39 39 38 38 38 39 39 39 40 40 41 42 43 43 43 43 44 44 45 45 44 44 44
93 94 93 90 88 88 87 85 82 79 76 75 72 70 70 70 68 67 65 61 58 57 53 51 50 48 48 52 54 53 52 50 45 44 46 47 48 49 51 53 54 53 50 47 47 45 43 41 38 38 38 38 37 36 36 36 36 36 36 37 37 37 37 36 36 35 35 35 35 36 37 37 37 38 39 39 40 41 41 42 42 43 43 44 44 44
90 91 90 87 85 84 82 81 82 82 79 77 77 76 75 73 69 66 63 59 58 56 52 50 47 45 48 52 52 50 48 44 39 38 39 41 43 45 46 47 49 48 44 41 42 42 40 37 35 34 34 33 33 32 32 31 31 31 32 33 34 34 34 33 33 33 32 32 32 32 33 34 34 35 35 35 36 37 38 38 39 39 40 41 42 43
85 85 84 83 83 81 78 77 78 79 77 76 76 76 74 71 68 65 63 60 58 57 53 50 46 42 45 49 49 49 48 43 37 33 32 32 35 38 40 41 42 41 37 35 36 37 36 33 31 30 29 28 27 27 27 27 27 27 28 29 30 30 30 29 30 30 30 29 29 29 29 30 31 32 32 32 32 33 34 35 35 35 36 37 38 39
80 79 79 80 79 77 76 75 74 74 74 73 72 71 69 68 69 68 64 60 56 56 59 59 51 44 45 46 45 47 45 38 35 32 27 25 26 29 33 35 35 32 29 29 30 31 32 30 27 25 23 22 22 21 21 22 22 22 23 24 24 25 25 25 26 26 26 26 27 27 26 27 27 29 29 29 29 29 29 30 30 31 32 32 33 34
78 77 76 75 75 75 74 73 71 72 73 72 70 69 68 70 71 67 62 59 55 52 55 60 59 53 49 45 38 36 32 28 29 27 23 22 23 24 26 27 26 24 24 24 24 25 26 24 21 18 16 15 15 15 15 16 16 16 17 18 19 20 20 21 21 21 22 22 23 23 24 24 24 25 26 26 26 26 26 26 26 26 27 27 28 29
73 73 73 71 70 69 68 67 66 66 66 65 64 67 71 71 70 67 61 57 55 51 45 47 51 51 50 46 36 27 22 22 21 16 15 18 19 20 18 16 14 12 13 16 17 18 20 17 11 8 7 7 7 8 8 8 9 10 10 11 13 14 15 16 16 16 17 18 18 19 20 21 21 22 22 22 23 23 24 23 23 22 22 22 23 24
68 68 69 68 66 64 62 61 60 59 57 57 59 63 67 67 67 66 61 53 50 52 47 38 36 38 40 40 37 33 28 23 16 9 9 13 13 12 8 6 7 5 4 5 6 9 10 7 2 359 358 0 1 360 359 0 1 3 4 4 5 7 9 11 11 11 12 12 13 14 16 17 17 18 18 18 19 19 20 21 20 20 19 18 18 19
65 63 63 61 60 59 57 56 55 54 53 53 56 58 58 59 61 60 58 51 43 47 53 47 38 35 32 27 26 32 37 33 23 17 13 12 11 8 4 4 4 1 360 359 359 359 358 354 352 351 351 353 353 351 351 353 354 356 358 358 358 360 2 4 5 6 6 7 8 10 11 12 13 14 14 15 14 14 16 16 16 16 15 15 14 15
60 58 56 54 51 51 50 50 49 49 50 52 52 55 56 56 58 59 57 52 42 41 44 41 37 34 26 20 16 15 18 20 25 28 25 20 14 5 3 4 2 359 356 355 353 350 346 344 342 341 342 344 343 343 345 347 348 350 351 351 352 353 354 357 359 360 1 2 4 5 6 7 8 9 9 10 10 10 11 11 12 11 10 10 10 10
52 50 48 48 45 44 43 40 40 39 40 44 46 47 50 50 53 56 54 51 42 41 41 30 25 28 21 15 14 7 2 1 8 16 18 19 17 5 358 358 359 358 352 348 347 342 340 339 337 336 337 338 338 338 340 341 342 343 343 344 345 346 347 349 352 354 355 356 358 360 1 2 3 3 4 5 6 6 6 6 6 6 5 5 5 5
45 43 42 42 39 37 34 28 28 28 27 32 35 37 39 38 39 41 43 43 31 31 40 27 12 20 16 5 5 3 357 352 355 2 2 1 5 4 355 348 347 350 347 342 341 340 338 338 337 337 336 336 336 336 336 336 336 336 336 336 338 340 341 343 345 347 349 351 352 354 356 357 357 357 359 0 1 2 2 1 1 1 0 0 360 0
36 29 26 28 26 21 19 13 10 11 13 20 23 25 27 21 17 16 18 21 13 10 26 22 359 3 10 359 352 355 353 344 343 349 352 350 350 353 352 345 340 341 344 342 338 337 336 335 336 337 335 334 334 334 334 333 331 331 330 331 333 334 335 338 340 342 343 345 347 349 350 352 353 353 354 355 356 356 357 356 356 355 356 356 355 355
10 1 351 353 1 357 352 349 354 359 0 9 14 10 9 3 358 359 359 359 354 353 7 14 355 351 0 358 350 350 351 348 345 347 350 350 348 346 347 346 341 339 341 343 341 338 338 336 335 335 335 333 333 332 331 331 330 330 330 330 330 330 331 334 335 337 338 340 342 344 345 347 348 349 349 350 350 350 350 351 351 351 351 351 351 350
338 332 327 330 342 343 337 336 344 358 358 351 356 353 351 350 349 349 350 348 346 346 352 0 356 351 355 359 358 357 355 355 356 355 355 355 351 346 344 344 342 340 338 339 339 339 339 338 336 335 335 334 332 331 330 331 331 331 332 332 330 329 330 331 332 333 334 336 338 339 341 342 343 344 344 345 345 345 345 345 346 346 347 347 347 346
317 318 317 324 339 343 340 341 341 344 345 335 336 339 339 339 339 340 342 344 341 338 342 350 351 349 350 352 355 1 1 356 352 350 351 351 349 346 343 342 340 339 336 335 336 336 336 337 336 335 335 335 334 333 332 333 332 331 331 331 331 331 330 330 331 331 332 334 335 336 337 338 339 339 339 340 340 340 341 341 341 341 342 342 342 342
306 312 314 316 331 336 334 339 335 328 330 328 325 328 330 330 330 330 332 334 333 331 334 342 346 343 340 340 343 349 359 355 346 343 342 342 341 340 339 338 337 337 335 334 333 333 333 334 334 334 334 335 335 334 333 333 333 332 331 330 331 331 330 330 330 330 331 331 332 333 334 334 334 334 334 335 336 336 337 337 336 336 336 337 338 338
296 301 309 309 312 320 321 323 322 317 319 321 319 319 321 322 323 324 325 326 330 331 329 331 337 334 330 332 336 338 339 339 337 336 334 333 333 334 334 334 334 334 334 333 332 331 332 333 333 333 333 333 334 334 333 333 332 332 331 329 329 328 329 329 328 328 328 328 328 329 329 329 328 328 329 330 331 332 332 332 332 331 332 332 333 334
290 289 300 303 301 306 309 311 314 313 313 315 313 312 312 314 318 320 320 321 326 329 325 323 327 330 327 327 330 332 332 332 331 332 333 331 330 331 332 331 330 330 330 329 329 329 330 331 331 332 331 331 331 331 330 330 329 329 328 328 327 327 326 326 325 325 325 325 325 324 323 323 323 324 325 326 327 328 328 329 329 328 328 328 329 330
289 288 293 295 296 301 304 305 307 307 309 311 312 312 310 310 313 316 316 316 319 322 320 318 320 324 323 322 323 324 325 326 326 327 329 327 325 326 328 328 327 327 327 327 328 328 328 328 329 329 329 329 329 329 328 327 326 325 325 325 325 324 323 322 322 322 322 321 320 319 319 320 320 322 323 323 324 324 325 325 326 325 325 325 325 326
288 289 290 288 290 295 299 302 303 303 303 305 307 310 310 310 312 313 312 312 313 315 315 313 315 318 318 316 317 317 317 318 318 318 320 321 320 322 324 324 324 324 324 325 326 326 326 325 326 326 325 325 325 325 325 324 324 323 323 322 322 321 320 320 319 319 318 317 316 316 317 318 319 320 320 320 321 321 322 322 323 323 323 323 323 324
287 288 289 287 287 291 295 298 300 300 299 298 300 303 304 305 307 309 310 310 310 310 310 309 310 314 315 313 313 313 314 315 314 314 315 317 318 319 320 321 322 322 323 324 324 324 323 323 322 322 321 320 319 319 320 320 320 320 321 320 320 320 319 318 318 317 316 315 315 316 316 317 317 318 318 318 319 319 320 320 320 321 321 321 321 321
285 287 287 287 287 289 292 293 295 296 295 295 298 299 297 299 301 303 305 307 307 306 306 306 307 311 312 311 311 312 313 314 313 313 314 316 317 317 318 318 319 321 322 322 322 321 320 320 319 318 317 316 315 315 316 316 316 316 316 317 317 317 317 316 315 315 315 314 314 314 315 315 316 316 316 316 316 316 316 317 317 318 318 318 318 318
283 284 285 286 285 286 287 288 289 290 290 293 295 294 294 296 297 298 301 303 304 304 304 304 306 309 311 310 310 312 313 313 312 313 314 315 315 316 316 316 317 318 319 320 319 319 318 317 316 315 315 314 313 312 312 311 311 311 311 311 311 312 312 312 312 312 312 312 312 312 312 312 313 313 313 313 313 313 314 314 314 314 314 314 315 315
280 282 283 283 284 284 285 286 287 287 288 292 293 291 293 295 295 297 300 301 302 302 302 303 305 307 309 309 309 310 310 310 310 311 313 314 314 314 315 315 316 316 316 316 315 314 313 313 312 311 311 311 311 310 309 308 307 307 307 307 307 307 307 307 307 307 308 308 309 310 310 311 311 312 312 313 313 313 312 312 312 312 312 312 312 312
278 280 281 281 281 283 284 285 286 287 289 292 292 293 295 295 294 296 299 301 301 300 299 300 301 304 306 307 307 307 306 306 307 308 311 312 312 312 313 314 314 314 313 313 312 312 312 311 310 310 310 310 310 310 310 310 309 308 308 308 307 306 305 305 305 305 306 307 308 308 308 309 309 310 310 310 310 310 310 310 310 311 311 311 311 310
275 277 278 279 281 283 285 286 287 288 290 291 292 294 296 295 295 297 299 299 299 298 298 299 301 306 308 308 308 308 307 307 307 309 312 312 310 311 313 314 314 315 316 317 318 318 318 318 317 317 316 316 316 316 316 316 316 315 314 314 313 312 311 309 308 308 308 308 308 308 308 308 308 308 308 308 308 309 309 310 310 310 310 310 310 310
275 275 275 277 279 283 285 287 287 287 288 289 290 293 294 294 296 298 299 299 299 299 301 303 308 315 317 315 315 315 313 311 311 314 316 316 314 315 316 317 318 320 322 323 324 324 324 323 323 323 323 323 323 323 323 323 322 322 321 320 319 319 317 315 314 314 314 313 313 313 313 313 313 313 312 312 313 313 313 313 313 312 312 312 311 311
276 276 276 277 278 281 283 285 286 287 288 288 289 290 291 292 296 301 305 304 303 304 306 308 313 318 319 320 324 323 320 317 317 319 321 321 321 320 320 322 323 324 325 325 324 324 324 323 323 323 324 325 325 325 325 324 324 324 323 323 323 323 322 320 319 319 318 318 317 317 316 316 317 317 317 317 318 318 318 317 317 317 317 316 316 315
272 275 277 279 280 281 283 285 285 286 288 290 293 294 293 294 301 310 315 312 309 311 314 315 316 317 320 325 329 327 323 321 321 322 323 324 325 324 324 325 326 326 326 326 325 325 324 324 324 324 325 326 327 326 325 326 325 325 325 324 324 325 324 323 323 322 322 321 320 320 320 320 321 321 321 320 320 320 320 320 321 321 321 320 320 319
271 275 278 280 282 283 286 287 287 288 290 294 299 298 296 299 306 314 317 314 312 315 318 316 315 316 321 328 329 325 323 324 324 324 326 327 328 327 327 327 328 327 325 325 324 325 325 325 326 327 328 329 329 329 329 330 329 327 327 326 326 326 325 324 323 323 323 323 323 323 323 324 325 325 325 324 324 323 323 323 324 324 323 323 323 322
270 275 279 282 283 285 287 288 289 291 292 294 297 298 299 303 308 313 315 313 314 316 317 315 314 316 321 326 326 324 324 326 326 325 326 327 328 327 327 327 326 325 324 324 324 325 326 327 328 329 330 330 330 330 331 331 330 328 328 327 326 326 326 324 324 324 323 323 324 324 325 325 325 326 326 326 326 325 325 325 324 324 324 324 323 323
271 272 276 281 284 284 285 286 288 291 292 293 295 298 301 304 307 310 311 310 311 314 314 313 314 318 322 324 324 325 325 325 324 323 323 324 325 325 324 324 323 322 321 322 323 324 325 326 327 328 329 328 328 329 330 330 328 327 327 326 325 326 326 324 324 324 323 323 323 323 324 324 324 324 324 324 324 324 324 324 324 323 322 322 322 323
274 273 274 279 282 283 284 286 288 290 290 291 295 298 300 303 306 308 307 307 309 310 309 310 314 318 321 323 324 324 324 322 321 319 320 322 323 322 320 320 319 318 317 318 320 322 323 323 324 325 325 325 326 327 327 327 326 325 325 324 323 324 324 322 322 321 321 321 321 320 320 320 320 320 320 320 321 322 322 323 323 323 322 321 322 323
277 276 277 280 281 283 286 288 289 290 290 291 293 296 298 301 303 303 303 304 306 306 306 309 313 316 318 320 320 320 319 318 316 316 318 320 320 318 317 316 315 314 315 317 320 322 323 323 323 323 322 323 323 324 325 326 325 324 323 321 321 321 321 320 319 319 319 318 318 318 317 317 317 317 317 317 318 319 320 321 322 322 321 321 322 322
276 277 279 280 282 285 286 287 288 288 288 290 292 294 296 298 299 299 299 301 302 303 305 308 311 314 315 316 315 315 315 314 314 315 317 318 317 315 313 312 311 310 312 316 319 321 321 320 320 320 320 320 322 323 324 325 325 325 323 321 320 320 319 318 318 318 318 317 316 315 315 315 314 314 314 314 315 316 317 318 319 319 319 319 320 320
276 278 279 281 282 284 284 285 285 285 286 288 291 292 294 296 297 297 298 299 300 302 304 307 310 312 313 312 311 311 312 312 313 315 316 315 314 312 311 309 308 308 311 316 318 318 318 317 317 317 317 318 320 322 324 325 326 325 324 323 321 320 319 318 317 316 315 314 313 313 312 312 311 311 311 311 312 313 314 314 315 315 316 316 317 318
278 278 279 281 281 282 282 283 284 285 287 289 290 292 293 295 295 296 296 298 299 301 303 305 307 309 309 309 309 309 310 311 312 313 312 311 309 308 307 307 307 308 312 316 317 317 317 317 316 316 316 317 318 320 321 323 324 325 325 325 324 322 321 319 317 315 312 310 309 309 308 308 308 308 308 309 310 310 310 311 311 311 312 312 313 314
277 278 278 279 279 280 281 282 283 285 287 289 290 292 293 294 294 295 296 297 298 299 301 303 304 304 304 304 305 306 308 310 311 310 308 306 304 304 305 305 305 308 313 316 316 317 317 317 316 316 316 317 317 318 320 321 323 325 326 326 326 325 324 322 319 316 312 310 308 306 305 305 306 306 307 308 308 307 307 306 306 307 308 308 309 310
276 277 277 277 278 279 280 282 284 285 285 286 288 289 290 292 293 294 294 295 296 298 300 301 301 300 300 300 301 304 306 307 307 306 304 303 302 303 304 304 305 309 313 315 315 316 317 316 316 316 316 316 316 317 318 320 321 323 324 325 325 325 325 324 321 317 314 311 309 308 307 307 307 307 308 307 306 305 303 301 301 302 303 304 305 306
275 276 276 277 278 278 279 281 282 283 284 285 285 286 287 288 289 289 290 292 294 297 299 300 300 299 299 300 301 303 303 303 303 302 302 302 302 302 302 303 305 308 310 312 314 315 315 315 315 315 315 316 316 317 318 319 320 320 321 322 323 324 324 324 322 319 315 312 311 310 309 309 308 308 308 307 305 303 302 301 301 301 301 302 303 305
274 274 275 276 276 277 278 280 280 282 283 284 285 285 286 286 286 287 288 290 292 294 295 296 297 298 299 301 302 302 301 301 302 302 303 303 303 302 302 302 303 305 306 308 310 312 312 313 314 314 315 315 317 318 319 319 318 318 319 320 321 323 323 323 321 318 315 313 312 311 309 308 308 307 306 304 303 302 301 301 300 300 300 300 301 303
273 274 274 275 275 276 277 278 279 280 282 282 283 284 284 285 286 287 289 290 291 291 292 293 294 295 297 299 300 300 300 301 302 302 302 303 303 303 303 302 302 302 303 305 307 309 310 310 311 312 313 314 315 317 317 317 316 317 317 318 319 320 321 321 319 317 315 313 312 310 309 308 307 306 304 302 301 300 300 299 299 299 299 299 300 301
273 274 274 275 275 277 278 278 278 279 280 281 283 284 285 286 287 288 289 289 289 290 291 292 293 294 295 296 296 297 299 300 301 301 301 301 301 301 301 301 301 301 302 303 305 306 307 308 309 310 311 312 313 314 314 314 314 315 316 316 317 318 318 318 317 316 314 312 311 310 308 307 306 305 303 301 300 299 299 298 298 298 298 298 299 299
Height
10719 10718 10719 10720 10720 10719 10719 10719 10720 10721 10721 10721 10720 10721 10723 10724 10723 10722 10722 10723 10724 10724 10725 10726 10727 10728 10728 10729 10730 10729 10727 10727 10726 10724 10723 10722 10721 10720 10718 10716 10714 10713 10711 10709 10707 10704 10702 10700 10698 10695 10692 10689 10686 10683 10679 10676 10673 10670 10667 10664 10661 10659 10655 10652 10648 10645 10641 10637 10633 10629 10626 10623 10620 10617 10615 10614 10613 10612 10612 10611 10611 10611 10611 10611 10612 10613
10722 10721 10721 10722 10724 10723 10723 10723 10724 10724 10723 10723 10723 10724 10726 10726 10725 10724 10724 10726 10727 10727 10727 10728 10729 10730 10730 10730 10731 10730 10729 10728 10727 10726 10725 10724 10723 10722 10721 10719 10716 10715 10713 10711 10709 10706 10704 10702 10700 10697 10693 10691 10688 10685 10682 10680 10677 10674 10671 10668 10665 10662 10659 10655 10652 10648 10644 10641 10637 10633 10629 10626 10623 10620 10618 10616 10614 10613 10611 10610 10610 10609 10609 10609 10609 10609
10725 10724 10723 10724 10726 10727 10726 10726 10728 10728 10726 10726 10726 10727 10728 10727 10726 10727 10728 10728 10729 10729 10729 10730 10731 10731 10731 10731 10732 10731 10729 10729 10728 10727 10726 10726 10725 10724 10721 10720 10718 10716 10715 10712 10710 10708 10706 10705 10702 10698 10695 10693 10691 10688 10685 10683 10680 10677 10674 10672 10669 10665 10662 10659 10656 10652 10648 10645 10641 10637 10633 10630 10627 10625 10623 10620 10618 10615 10613 10611 10610 10609 10608 10607 10607 10607
10727 10726 10725 10726 10730 10731 10730 10729 10729 10729 10730 10729 10729 10729 10729 10729 10729 10730 10730 10730 10730 10731 10731 10731 10732 10732 10732 10732 10733 10731 10729 10728 10727 10727 10727 10726 10725 10723 10722 10721 10719 10717 10715 10713 10712 10710 10708 10706 10704 10701 10698 10696 10693 10691 10688 10685 10683 10680 10677 10675 10671 10668 10666 10663 10659 10656 10653 10649 10646 10642 10638 10635 10632 10630 10627 10624 10621 10619 10616 10614 10612 10610 10609 10608 10607 10606
10729 10729 10727 10728 10732 10735 10735 10733 10731 10731 10732 10732 10732 10732 10732 10732 10732 10732 10732 10732 10732 10732 10733 10732 10733 10733 10732 10732 10731 10729 10727 10727 10727 10727 10728 10726 10724 10723 10723 10722 10720 10718 10716 10714 10713 10711 10709 10707 10705 10703 10700 10698 10696 10693 10691 10688 10685 10683 10680 10678 10674 10672 10669 10666 10663 10660 10656 10653 10650 10646 10643 10639 10637 10634 10631 10627 10624 10622 10620 10617 10615 10613 10611 10610 10608 10607
10733 10734 10732 10731 10734 10737 10738 10737 10736 10734 10734 10734 10734 10734 10735 10735 10734 10734 10734 10734 10734 10734 10734 10733 10733 10733 10732 10732 10731 10730 10729 10728 10729 10729 10728 10726 10724 10724 10724 10723 10720 10719 10717 10716 10714 10712 10710 10708 10707 10704 10702 10700 10698 10696 10694 10691 10688 10686 10683 10681 10678 10675 10672 10669 10666 10663 10660 10657 10654 10650 10647 10644 10641 10638 10634 10631 10629 10626 10624 10621 10619 10617 10615 10613 10611 10610
10737 10737 10737 10735 10736 10738 10738 10738 10738 10738 10736 10736 10737 10737 10737 10737 10736 10735 10736 10736 10736 10735 10734 10734 10734 10734 10733 10733 10732 10732 10731 10730 10730 10730 10728 10726 10725 10726 10725 10723 10721 10720 10719 10718 10716 10714 10712 10710 10708 10706 10704 10702 10700 10698 10696 10694 10691 10689 10686 10683 10680 10677 10674 10671 10669 10666 10663 10660 10658 10655 10651 10648 10646 10643 10639 10636 10634 10631 10628 10626 10623 10621 10619 10617 10615 10613
10739 10739 10739 10739 10738 10739 10739 10739 10739 10739 10739 10738 10739 10739 10739 10738 10737 10737 10738 10738 10737 10736 10736 10736 10735 10735 10734 10734 10734 10733 10732 10731 10731 10730 10728 10727 10727 10727 10726 10724 10723 10721 10720 10719 10718 10715 10713 10712 10711 10708 10706 10704 10702 10700 10698 10696 10693 10691 10689 10686 10683 10680 10677 10674 10672 10669 10666 10664 10661 10658 10655 10653 10650 10647 10644 10641 10638 10636 10633 10630 10628 10626 10624 10621 10619 10616
10741 10741 10741 10741 10741 10741 10741 10741 10740 10741 10741 10741 10741 10741 10741 10740 10740 10739 10739 10739 10738 10738 10738 10737 10736 10736 10736 10735 10734 10734 10732 10731 10731 10730 10729 10729 10729 10728 10726 10725 10724 10722 10721 10720 10718 10716 10715 10714 10712 10710 10708 10706 10704 10702 10700 10698 10696 10693 10691 10688 10686 10683 10680 10677 10674 10672 10669 10667 10664 10661 10658 10656 10654 10650 10647 10645 10642 10640 10638 10635 10633 10631 10629 10626 10624 10621
10744 10743 10743 10742 10743 10743 10743 10742 10742 10742 10743 10743 10743 10744 10743 10743 10742 10741 10741 10740 10740 10740 10739 10738 10737 10738 10737 10736 10735 10734 10732 10732 10732 10731 10731 10731 10730 10728 10727 10726 10724 10723 10722 10720 10718 10717 10716 10715 10713 10712 10710 10708 10706 10705 10702 10700 10698 10696 10693 10691 10688 10686 10683 10680 10677 10675 10672 10669 10667 10664 10661 10659 10656 10653 10650 10648 10646 10644 10642 10639 10637 10636 10634 10631 10628 10626
10746 10745 10744 10745 10745 10745 10744 10745 10745 10744 10744 10745 10746 10746 10745 10744 10744 10744 10743 10743 10742 10741 10741 10740 10740 10740 10739 10737 10736 10735 10734 10734 10734 10733 10732 10731 10730 10729 10727 10726 10724 10723 10722 10721 10720 10718 10717 10716 10714 10713 10711 10709 10708 10706 10704 10702 10700 10698 10696 10693 10691 10688 10685 10683 10680 10677 10675 10672 10669 10666 10664 10661 10658 10655 10653 10651 10649 10647 10644 10642 10640 10639 10637 10634 10632 10630
10748 10747 10747 10747 10747 10746 10747 10747 10747 10746 10746 10747 10748 10747 10746 10746 10747 10747 10746 10745 10744 10743 10743 10743 10743 10742 10740 10739 10738 10737 10737 10737 10736 10734 10733 10731 10730 10729 10728 10726 10725 10724 10724 10723 10722 10720 10718 10717 10716 10714 10713 10711 10710 10708 10706 10704 10702 10700 10698 10695 10693 10690 10687 10685 10682 10680 10677 10675 10672 10669 10666 10663 10660 10658 10655 10654 10652 10649 10647 10645 10643 10642 10639 10637 10635 10633
10750 10749 10750 10750 10749 10749 10749 10749 10749 10748 10748 10749 10749 10748 10749 10749 10749 10748 10748 10747 10746 10746 10745 10746 10746 10745 10743 10741 10740 10740 10740 10739 10737 10735 10734 10733 10732 10730 10729 10728 10727 10727 10726 10725 10723 10722 10719 10718 10717 10716 10715 10713 10712 10710 10708 10706 10704 10702 10699 10697 10694 10692 10689 10687 10684 10682 10679 10677 10674 10671 10669 10666 10663 10660 10658 10656 10654 10651 10649 10647 10645 10643 10641 10640 10638 10636
10752 10751 10751 10752 10751 10751 10751 10751 10750 10750 10750 10750 10750 10750 10751 10751 10750 10750 10749 10749 10748 10748 10747 10747 10746 10746 10744 10743 10743 10742 10741 10739 10738 10737 10736 10735 10733 10731 10731 10730 10729 10728 10727 10726 10724 10722 10720 10718 10718 10716 10715 10714 10712 10710 10709 10707 10705 10704 10701 10699 10697 10694 10692 10689 10686 10684 10681 10679 10676 10674 10671 10668 10666 10663 10661 10659 10656 10654 10652 10650 10647 10645 10643 10641 10639 10637
10753 10753 10753 10753 10753 10752 10752 10752 10752 10751 10751 10751 10751 10752 10752 10751 10751 10751 10751 10750 10750 10749 10748 10747 10746 10746 10745 10745 10745 10744 10742 10741 10740 10739 10737 10735 10734 10732 10731 10730 10729 10727 10726 10724 10723 10721 10720 10720 10719 10718 10716 10714 10712 10711 10709 10708 10706 10704 10702 10700 10698 10696 10694 10691 10688 10686 10683 10681 10678 10676 10673 10670 10668 10666 10664 10661 10659 10656 10654 10652 10649 10647 10645 10643 10641 10639
10755 10755 10755 10754 10754 10754 10753 10753 10753 10753 10753 10753 10753 10752 10752 10752 10752 10751 10751 10750 10750 10750 10749 10748 10747 10746 10745 10745 10744 10744 10743 10743 10742 10740 10738 10736 10734 10733 10731 10729 10728 10726 10725 10723 10722 10720 10720 10720 10719 10718 10717 10715 10713 10712 10710 10708 10706 10704 10702 10700 10698 10696 10694 10692 10689 10687 10684 10682 10680 10677 10675 10672 10670 10668 10666 10663 10661 10658 10656 10653 10651 10649 10647 10645 10643 10640
10757 10756 10756 10756 10755 10755 10755 10755 10754 10754 10754 10754 10753 10753 10753 10752 10752 10752 10752 10751 10750 10750 10749 10748 10747 10746 10745 10745 10743 10742 10742 10742 10741 10740 10738 10736 10734 10732 10731 10730 10728 10727 10725 10724 10723 10722 10721 10720 10719 10718 10717 10715 10714 10712 10710 10708 10706 10704 10702 10700 10698 10696 10694 10692 10690 10688 10685 10683 10681 10678 10676 10674 10672 10670 10667 10665 10662 10660 10657 10654 10652 10650 10648 10646 10643 10641
10758 10758 10757 10757 10757 10756 10756 10755 10755 10755 10755 10754 10754 10753 10753 10753 10752 10752 10752 10751 10751 10750 10749 10748 10747 10747 10746 10744 10743 10741 10740 10739 10738 10738 10737 10736 10735 10733 10731 10730 10729 10728 10727 10726 10725 10724 10722 10721 10719 10718 10716 10714 10713 10711 10709 10707 10706 10704 10702 10701 10699 10697 10695 10693 10691 10689 10686 10684 10682 10679 10677 10675 10673 10670 10668 10666 10663 10660 10657 10655 10652 10650 10648 10645 10643 10641
10759 10758 10758 10758 10757 10757 10756 10756 10756 10755 10755 10754 10754 10753 10753 10753 10753 10752 10752 10752 10751 10750 10750 10749 10748 10748 10747 10745 10744 10743 10741 10738 10737 10737 10736 10736 10735 10735 10733 10730 10729 10729 10728 10726 10725 10724 10722 10721 10719 10717 10714 10713 10711 10709 10708 10706 10704 10703 10701 10700 10698 10696 10695 10693 10691 10689 10687 10685 10682 10680 10678 10675 10673 10670 10668 10665 10663 10660 10657 10655 10652 10650 10647 10645 10642 10639
10759 10759 10758 10758 10757 10757 10757 10756 10756 10755 10755 10754 10754 10753 10753 10753 10752 10752 10752 10751 10751 10750 10750 10750 10749 10748 10748 10747 10745 10744 10743 10741 10739 10738 10737 10736 10735 10734 10733 10731 10729 10727 10727 10726 10724 10722 10721 10719 10717 10716 10714 10712 10710 10708 10706 10705 10704 10702 10700 10698 10696 10695 10693 10691 10689 10688 10686 10684 10681 10679 10677 10675 10672 10669 10667 10664 10662 10660 10658 10656 10653 10650 10647 10644 10641 10639
10759 10759 10758 10758 10757 10757 10757 10756 10756 10755 10755 10754 10754 10753 10753 10752 10752 10751 10751 10750 10750 10749 10749 10749 10749 10748 10748 10747 10746 10745 10744 10743 10741 10740 10739 10737 10735 10733 10732 10731 10728 10726 10724 10723 10722 10720 10719 10717 10715 10713 10712 10710 10709 10707 10705 10704 10702 10701 10699 10697 10695 10693 10691 10689 10687 10686 10684 10682 10680 10678 10676 10673 10671 10668 10666 10663 10661 10659 10657 10655 10652 10650 10646 10643 10640 10638
10759 10758 10758 10757 10757 10757 10756 10756 10755 10755 10755 10754 10753 10753 10752 10752 10751 10751 10750 10750 10749 10748 10748 10748 10748 10747 10747 10746 10746 10744 10743 10742 10741 10740 10738 10737 10735 10733 10731 10729 10727 10725 10722 10721 10720 10718 10717 10715 10713 10712 10710 10709 10707 10705 10704 10702 10700 10698 10697 10695 10694 10691 10689 10687 10685 10684 10682 10680 10678 10676 10674 10672 10670 10668 10665 10663 10660 10658 10655 10653 10651 10648 10646 10643 10640 10637
10758 10758 10757 10757 10756 10756 10756 10755 10755 10754 10754 10753 10753 10752 10752 10751 10751 10750 10750 10750 10749 10748 10747 10747 10746 10745 10745 10744 10744 10743 10742 10740 10738 10736 10735 10734 10733 10732 10730 10728 10726 10725 10722 10720 10718 10717 10715 10714 10712 10711 10709 10708 10706 10704 10702 10700 10698 10696 10694 10693 10692 10690 10688 10686 10684 10682 10680 10677 10676 10674 10672 10670 10668 10666 10664 10662 10659 10656 10654 10651 10648 10646 10644 10642 10639 10636
10757 10757 10756 10756 10756 10755 10755 10755 10754 10754 10753 10753 10752 10752 10751 10751 10750 10750 10750 10750 10749 10748 10747 10747 10746 10745 10743 10743 10742 10741 10741 10740 10738 10736 10734 10732 10731 10730 10728 10727 10725 10724 10722 10720 10718 10716 10714 10713 10711 10709 10708 10706 10705 10703 10701 10699 10697 10695 10692 10690 10688 10687 10685 10683 10681 10679 10677 10675 10674 10672 10670 10668 10666 10664 10662 10660 10657 10655 10652 10649 10646 10644 10642 10640 10637 10635
10756 10756 10755 10755 10755 10755 10754 10754 10753 10753 10753 10752 10752 10751 10751 10750 10749 10749 10748 10748 10748 10747 10746 10746 10745 10744 10743 10741 10740 10738 10738 10737 10737 10735 10733 10731 10729 10728 10726 10724 10723 10722 10721 10719 10717 10715 10713 10711 10709 10707 10705 10703 10702 10700 10699 10697 10695 10693 10691 10688 10686 10684 10682 10681 10679 10677 10675 10673 10671 10669 10668 10666 10664 10662 10660 10658 10655 10653 10650 10647 10645 10642 10639 10637 10635 10632
10755 10755 10755 10754 10753 10753 10753 10753 10753 10752 10751 10751 10751 10750 10749 10749 10749 10748 10747 10746 10746 10746 10745 10744 10743 10743 10741 10740 10738 10737 10735 10733 10732 10730 10729 10726 10725 10725 10724 10723 10721 10719 10718 10717 10715 10714 10712 10710 10708 10705 10703 10701 10699 10698 10696 10694 10693 10691 10689 10687 10685 10682 10679 10678 10676 10674 10672 10670 10668 10666 10664 10663 10661 10659 10657 10655 10653 10650 10648 10645 10642 10639 10636 10634 10631 10629
10754 10754 10754 10753 10752 10752 10752 10751 10751 10751 10750 10749 10749 10748 10748 10747 10747 10747 10746 10744 10744 10744 10744 10742 10741 10741 10740 10738 10737 10736 10735 10733 10730 10728 10727 10724 10722 10722 10722 10721 10719 10717 10715 10714 10713 10711 10710 10708 10706 10704 10701 10699 10696 10694 10692 10690 10689 10688 10686 10685 10683 10681 10678 10675 10673 10671 10669 10667 10665 10663 10661 10659 10657 10655 10653 10651 10649 10647 10644 10642 10639 10636 10633 10630 10628 10625
10752 10752 10752 10752 10751 10751 10750 10750 10749 10749 10749 10748 10747 10746 10745 10744 10744 10744 10744 10743 10741 10741 10740 10740 10739 10739 10738 10736 10735 10735 10734 10733 10731 10729 10728 10726 10723 10720 10719 10718 10717 10716 10713 10711 10710 10708 10707 10705 10704 10702 10700 10697 10694 10692 10690 10687 10684 10682 10681 10680 10679 10678 10676 10673 10671 10668 10666 10664 10662 10660 10658 10656 10654 10651 10649 10646 10644 10642 10640 10638 10635 10633 10630 10627 10624 10621
10749 10750 10750 10750 10749 10749 10749 10748 10747 10747 10746 10746 10745 10745 10744 10742 10741 10741 10741 10740 10739 10738 10737 10736 10736 10737 10736 10733 10732 10731 10730 10729 10728 10727 10726 10726 10723 10720 10717 10715 10713 10712 10711 10709 10707 10705 10703 10702 10700 10699 10697 10695 10693 10690 10688 10686 10683 10680 10677 10675 10674 10673 10671 10670 10667 10665 10663 10660 10657 10655 10653 10651 10650 10648 10646 10643 10640 10638 10635 10633 10631 10628 10625 10622 10620 10617
10747 10747 10747 10747 10747 10747 10747 10746 10745 10744 10743 10743 10743 10743 10742 10741 10740 10739 10738 10737 10737 10735 10734 10732 10733 10734 10733 10730 10728 10727 10726 10725 10723 10722 10722 10722 10721 10719 10715 10712 10710 10708 10707 10706 10703 10701 10699 10698 10696 10695 10694 10692 10690 10687 10685 10683 10681 10679 10676 10672 10670 10668 10666 10665 10663 10661 10659 10657 10654 10651 10649 10647 10645 10643 10642 10640 10638 10635 10632 10630 10627 10624 10621 10618 10615 10613
10745 10745 10744 10744 10744 10745 10745 10744 10744 10742 10740 10740 10740 10740 10739 10738 10738 10737 10736 10735 10734 10732 10730 10729 10728 10729 10730 10728 10725 10723 10722 10720 10718 10717 10716 10715 10715 10715 10713 10710 10708 10706 10704 10702 10700 10697 10695 10693 10691 10689 10688 10687 10686 10684 10682 10680 10678 10676 10674 10672 10669 10665 10662 10660 10658 10656 10654 10652 10650 10648 10645 10643 10641 10638 10636 10634 10632 10631 10628 10626 10623 10621 10618 10615 10612 10609
10741 10742 10742 10741 10740 10741 10742 10742 10741 10739 10738 10737 10737 10736 10736 10736 10735 10734 10734 10733 10732 10729 10727 10725 10724 10725 10725 10724 10723 10721 10718 10716 10714 10712 10711 10710 10708 10708 10708 10707 10705 10703 10701 10698 10696 10694 10691 10689 10687 10685 10682 10681 10680 10678 10677 10675 10673 10672 10670 10668 10666 10663 10660 10657 10654 10652 10650 10648 10646 10644 10642 10639 10636 10633 10631 10628 10625 10623 10622 10620 10617 10615 10613 10611 10608 10605
10738 10738 10739 10737 10736 10737 10739 10738 10737 10736 10735 10734 10732 10732 10733 10733 10732 10732 10732 10731 10729 10726 10724 10723 10722 10722 10722 10721 10720 10718 10716 10713 10710 10709 10708 10706 10703 10702 10701 10701 10700 10698 10697 10695 10693 10691 10689 10687 10684 10682 10679 10677 10675 10674 10672 10670 10668 10666 10664 10662 10661 10658 10656 10653 10650 10648 10646 10644 10642 10640 10637 10635 10632 10629 10626 10624 10621 10618 10615 10613 10611 10609 10606 10604 10602 10599
10735 10735 10735 10734 10733 10733 10734 10735 10734 10733 10733 10731 10729 10728 10728 10728 10727 10728 10728 10727 10725 10722 10720 10718 10718 10719 10719 10718 10716 10714 10712 10709 10707 10706 10705 10703 10700 10698 10696 10696 10694 10693 10692 10691 10690 10688 10686 10684 10681 10679 10677 10675 10673 10671 10668 10666 10664 10662 10659 10657 10655 10653 10651 10648 10645 10644 10642 10640 10637 10635 10633 10630 10628 10626 10623 10620 10617 10614 10611 10608 10606 10603 10600 10598 10595 10593
10730 10730 10731 10730 10729 10729 10730 10730 10730 10729 10729 10728 10726 10725 10724 10722 10723 10724 10724 10723 10721 10719 10716 10713 10712 10713 10714 10712 10711 10710 10707 10705 10703 10702 10701 10700 10697 10695 10693 10692 10691 10689 10688 10687 10686 10684 10683 10681 10678 10676 10675 10673 10670 10668 10665 10663 10660 10658 10656 10654 10652 10650 10647 10644 10641 10639 10637 10635 10633 10630 10628 10626 10623 10621 10619 10616 10613 10610 10607 10603 10601 10598 10595 10592 10590 10587
10725 10725 10726 10726 10726 10726 10726 10726 10726 10725 10724 10724 10724 10723 10720 10718 10718 10720 10720 10719 10718 10716 10714 10710 10709 10709 10709 10709 10708 10706 10703 10701 10699 10698 10698 10696 10695 10692 10690 10689 10688 10686 10685 10684 10682 10680 10679 10677 10675 10673 10671 10669 10667 10665 10662 10660 10657 10655 10653 10651 10649 10647 10644 10641 10638 10635 10633 10631 10629 10626 10624 10621 10618 10616 10613 10611 10609 10606 10603 10599 10596 10593 10590 10587 10584 10581
10721 10721 10721 10721 10722 10722 10722 10722 10722 10721 10720 10720 10720 10720 10717 10715 10715 10716 10716 10715 10714 10713 10711 10708 10706 10705 10705 10705 10705 10702 10700 10697 10695 10694 10694 10693 10692 10690 10688 10686 10684 10682 10681 10679 10678 10676 10675 10673 10671 10669 10668 10666 10664 10661 10659 10657 10654 10651 10649 10647 10645 10643 10641 10638 10634 10631 10629 10627 10625 10622 10619 10616 10613 10610 10607 10605 10603 10601 10598 10595 10591 10588 10585 10582 10579 10576
10718 10717 10717 10717 10717 10718 10718 10718 10718 10717 10716 10716 10717 10716 10713 10712 10712 10712 10712 10711 10710 10709 10708 10706 10703 10702 10702 10702 10702 10700 10698 10696 10693 10691 10689 10688 10687 10686 10684 10683 10680 10678 10677 10675 10674 10673 10671 10669 10667 10666 10664 10662 10660 10657 10655 10652 10649 10646 10644 10642 10640 10638 10636 10634 10631 10628 10625 10622 10620 10617 10615 10612 10609 10606 10602 10599 10597 10595 10592 10589 10586 10583 10580 10577 10574 10571
10716 10715 10713 10713 10713 10714 10715 10715 10714 10714 10712 10712 10713 10713 10711 10710 10710 10709 10709 10708 10706 10705 10704 10702 10700 10699 10698 10699 10699 10697 10695 10693 10691 10689 10686 10684 10683 10681 10680 10678 10677 10675 10672 10670 10668 10667 10665 10664 10662 10661 10659 10657 10655 10653 10650 10648 10645 10642 10639 10637 10635 10633 10631 10629 10626 10624 10621 10617 10614 10612 10609 10607 10605 10602 10599 10595 10592 10589 10587 10584 10582 10579 10576 10573 10570 10566
10713 10712 10711 10709 10709 10710 10711 10712 10711 10710 10709 10708 10709 10709 10708 10707 10707 10706 10706 10705 10704 10703 10701 10699 10697 10696 10695 10694 10693 10693 10691 10689 10688 10686 10685 10683 10681 10678 10676 10675 10673 10671 10669 10667 10665 10662 10660 10658 10656 10654 10653 10651 10650 10648 10646 10644 10640 10637 10634 10632 10629 10627 10625 10623 10620 10618 10615 10612 10610 10607 10604 10602 10599 10597 10595 10592 10588 10585 10582 10580 10577 10574 10571 10569 10566 10562
10708 10708 10708 10707 10706 10706 10707 10708 10708 10707 10706 10705 10706 10706 10705 10704 10704 10703 10702 10702 10701 10700 10698 10697 10695 10693 10691 10689 10688 10687 10686 10685 10683 10682 10681 10680 10679 10676 10674 10671 10669 10667 10666 10664 10663 10661 10658 10655 10652 10649 10647 10645 10644 10642 10641 10639 10636 10633 10630 10627 10624 10622 10620 10617 10615 10612 10610 10607 10605 10602 10599 10597 10594 10591 10589 10587 10584 10580 10577 10574 10572 10569 10566 10563 10561 10558
10703 10704 10704 10703 10701 10702 10703 10704 10704 10703 10702 10701 10702 10702 10702 10701 10700 10699 10698 10698 10697 10696 10695 10694 10693 10691 10689 10687 10685 10683 10682 10680 10679 10678 10677 10676 10675 10672 10670 10668 10665 10663 10661 10659 10658 10656 10655 10652 10650 10646 10643 10641 10638 10636 10634 10633 10631 10628 10626 10622 10619 10617 10615 10612 10609 10607 10604 10601 10598 10596 10593 10591 10588 10585 10582 10580 10577 10574 10570 10567 10565 10562 10559 10557 10554 10551
10698 10698 10699 10698 10697 10698 10698 10699 10699 10699 10698 10697 10697 10698 10698 10697 10696 10695 10694 10693 10693 10692 10691 10690 10689 10688 10686 10684 10682 10680 10678 10676 10673 10672 10672 10671 10670 10668 10665 10663 10661 10659 10657 10655 10654 10652 10650 10648 10646 10643 10640 10637 10634 10632 10630 10628 10625 10623 10620 10617 10614 10612 10609 10606 10603 10600 10597 10593 10590 10588 10586 10583 10581 10578 10575 10572 10570 10568 10564 10560 10557 10554 10551 10549 10547 10545
10693 10693 10693 10693 10692 10693 10693 10694 10694 10694 10693 10694 10694 10693 10693 10693 10692 10691 10690 10689 10688 10688 10687 10686 10685 10684 10682 10680 10677 10676 10674 10672 10669 10667 10665 10664 10662 10661 10659 10657 10655 10653 10652 10651 10650 10648 10646 10644 10642 10639 10636 10633 10630 10628 10625 10623 10620 10617 10614 10611 10608 10606 10604 10602 10599 10596 10592 10588 10584 10581 10578 10575 10573 10571 10568 10566 10563 10561 10558 10555 10551 10547 10544 10541 10539 10537
10688 10688 10688 10688 10687 10687 10687 10688 10688 10688 10688 10689 10689 10689 10689 10688 10688 10686 10685 10684 10684 10684 10683 10682 10681 10680 10678 10675 10673 10671 10670 10668 10667 10665 10662 10659 10656 10654 10652 10650 10647 10646 10645 10644 10642 10641 10639 10637 10635 10632 10629 10627 10624 10622 10619 10617 10615 10612 10609 10606 10603 10601 10599 10598 10596 10593 10589 10585 10580 10576 10572 10570 10567 10564 10562 10560 10557 10555 10552 10549 10545 10542 10538 10535 10532 10530
10683 10682 10682 10682 10681 10681 10681 10682 10683 10683 10683 10683 10683 10683 10683 10683 10682 10681 10680 10679 10678 10678 10679 10678 10677 10675 10673 10671 10669 10667 10666 10664 10663 10661 10658 10655 10652 10649 10646 10643 10641 10639 10638 10637 10635 10633 10631 10629 10627 10625 10622 10620 10617 10614 10612 10610 10608 10606 10603 10599 10596 10594 10592 10591 10589 10586 10584 10580 10577 10573 10569 10565 10562 10560 10558 10555 10552 10550 10546 10542 10539 10535 10532 10529 10526 10524
10677 10676 10675 10675 10675 10675 10675 10676 10677 10677 10677 10678 10679 10678 10677 10677 10676 10676 10674 10673 10673 10672 10673 10672 10671 10670 10668 10667 10665 10663 10661 10660 10657 10655 10652 10650 10646 10643 10640 10637 10635 10633 10632 10630 10629 10627 10624 10622 10619 10617 10616 10614 10611 10608 10606 10603 10601 10599 10596 10593 10590 10587 10584 10582 10580 10578 10575 10572 10569 10566 10563 10560 10557 10554 10551 10549 10546 10543 10540 10536 10533 10530 10526 10523 10520 10518
10671 10670 10668 10669 10669 10668 10669 10671 10671 10670 10670 10672 10673 10673 10672 10672 10671 10670 10669 10669 10668 10667 10666 10665 10664 10662 10662 10661 10660 10658 10656 10653 10651 10649 10646 10644 10641 10638 10636 10633 10630 10628 10626 10624 10622 10620 10617 10615 10612 10609 10607 10605 10604 10602 10600 10598 10595 10592 10589 10587 10584 10581 10578 10575 10572 10569 10565 10562 10559 10557 10554 10552 10549 10546 10543 10540 10536 10533 10530 10527 10525 10522 10519 10515 10513 10511
10664 10662 10662 10663 10662 10661 10663 10664 10664 10664 10664 10664 10665 10665 10665 10665 10664 10664 10664 10664 10663 10663 10661 10660 10658 10656 10655 10654 10653 10651 10648 10645 10644 10641 10639 10637 10634 10632 10630 10628 10626 10623 10621 10618 10616 10613 10611 10608 10605 10602 10600 10597 10595 10593 10592 10590 10587 10584 10582 10579 10576 10574 10572 10569 10565 10561 10557 10553 10550 10547 10545 10542 10540 10538 10535 10531 10527 10523 10520 10518 10516 10513 10511 10507 10505 10503
10656 10655 10655 10655 10655 10654 10656 10657 10657 10657 10657 10656 10656 10657 10657 10657 10657 10656 10656 10656 10656 10656 10655 10654 10653 10651 10650 10649 10647 10644 10640 10638 10636 10634 10631 10629 10627 10625 10623 10621 10619 10616 10613 10611 10609 10606 10604 10601 10599 10596 10593 10590 10588 10586 10583 10581 10579 10576 10574 10571 10569 10566 10564 10562 10558 10555 10550 10546 10542 10539 10536 10533 10531 10529 10527 10523 10519 10516 10512 10510 10507 10505 10503 10500 10498 10495
10647 10647 10647 10648 10648 10648 10648 10649 10649 10650 10649 10649 10649 10649 10649 10649 10649 10648 10647 10647 10647 10647 10647 10646 10645 10644 10644 10642 10640 10638 10635 10632 10629 10626 10624 10622 10621 10618 10616 10614 10612 10609 10606 10603 10600 10598 10596 10594 10591 10589 10587 10584 10581 10578 10575 10572 10569 10567 10565 10563 10561 10559 10556 10554 10551 10547 10544 10539 10535 10531 10528 10525 10522 10519 10516 10513 10510 10507 10504 10501 10498 10496 10494 10492 10490 10487